Durango, CO

9:58 PM MDT on May 22, 2017 (GMT -0600)
Durango-La Plata County

Weather History for KDRO - January, 2013

Change the Weather History Date:

Wednesday, January 9, 2013

  Actual Average Record
Temperature  
Mean Temperature 21 °F 23 °F  
Max Temperature 40 °F 37 °F 54 °F (1981)
Min Temperature 1 °F 9 °F -9 °F (1989)
Degree Days  
Heating Degree Days 44 42  
Month to date heating degree days 473 377  
Since 1 July heating degree days 3211 3251  
Cooling Degree Days 0 0  
Month to date cooling degree days 0 0  
Year to date cooling degree days 0 0  
Moisture  
Dew Point 9 °F    
Average Humidity 66    
Maximum Humidity 96    
Minimum Humidity 35    
Precipitation  
Precipitation 0.00 in 0.03 in 0.50 in (1980)
Month to date precipitation T 0.32  
Year to date precipitation T 0.32  
Sea Level Pressure  
Sea Level Pressure 30.50 in    
Wind  
Wind Speed 4 mph (NE)    
Max Wind Speed 12 mph    
Max Gust Speed 14 mph    
Visibility 10 miles    
Events      
T = Trace of Precipitation, MM = Missing Value Source: NWS Daily Summary

Daily Weather History Graph

Daily Weather History Graph

Search for Another Location

Airport or City:

Trip Planner

Search our weather history database for the weather conditions in past years. The results will help you decide how hot, cold, wet, or windy it might be!

Date:

Astronomy

Jan. 09, 2013 Rise Set
Actual Time 7:24 AM MST 5:11 PM MST
Civil Twilight 6:56 AM MST 5:40 PM MST
Nautical Twilight 6:23 AM MST 6:12 PM MST
Astronomical Twilight 5:52 AM MST 6:44 PM MST
Moon 5:07 AM MST (1/9) 3:16 PM MST (1/9)
Length of Visible Light 10h 44m
Length of Day
9h 47m
Waning Crescent, 6% of the Moon is Illuminated
Jan 9
Waning Crescent
Jan 11
New
Jan 18
First Quarter
Jan 26
Full
Feb 3
Last Quarter

Hourly Weather History & Observations

Time (MST) Temp. Windchill Dew Point Humidity Pressure Visibility Wind Dir Wind Speed Gust Speed Precip Events Conditions
12:53 AM 5.0 °F -4.1 °F 1.9 °F 87% 30.48 in 10.0 mi ENE 4.6 mph - N/A   Clear
1:53 AM 10.9 °F 4.7 °F 7.0 °F 84% 30.44 in 10.0 mi North 3.5 mph - N/A   Clear
2:53 AM 5.0 °F - 3.0 °F 92% 30.46 in 10.0 mi Calm Calm - N/A   Clear
3:53 AM 1.9 °F -7.6 °F -0.9 °F 88% 30.50 in 10.0 mi East 4.6 mph - N/A   Clear
4:53 AM 9.0 °F -3.2 °F 5.0 °F 84% 30.48 in 10.0 mi North 8.1 mph - N/A   Clear
5:53 AM 3.9 °F -3.4 °F 1.0 °F 88% 30.53 in 10.0 mi ESE 3.5 mph - N/A   Clear
6:53 AM 6.1 °F -7.8 °F 1.9 °F 83% 30.59 in 10.0 mi NNE 9.2 mph - N/A   Clear
7:53 AM 7.0 °F -5.7 °F 3.9 °F 87% 30.66 in 10.0 mi East 8.1 mph - N/A   Clear
8:53 AM 12.9 °F 1.6 °F 8.1 °F 81% 30.70 in 10.0 mi East 8.1 mph - N/A   Clear
9:53 AM 17.1 °F 6.6 °F 10.0 °F 74% 30.71 in 10.0 mi NNE 8.1 mph - N/A   Clear
10:53 AM 27.0 °F - 12.9 °F 56% 30.64 in 10.0 mi Calm Calm - N/A   Clear
11:53 AM 34.0 °F - 14.0 °F 44% 30.54 in 10.0 mi Calm Calm - N/A   Clear
12:53 PM 35.1 °F 32.2 °F 21.0 °F 57% 30.53 in 10.0 mi ENE 3.5 mph - N/A   Clear
1:53 PM 37.9 °F 34.4 °F 19.9 °F 48% 30.46 in 10.0 mi ENE 4.6 mph - N/A   Clear
2:53 PM 37.0 °F 33.3 °F 19.0 °F 48% 30.48 in 10.0 mi NE 4.6 mph - N/A   Clear
3:53 PM 37.0 °F - 16.0 °F 42% 30.47 in 10.0 mi Calm Calm - N/A   Clear
4:53 PM 37.9 °F - 12.9 °F 36% 30.41 in 10.0 mi Calm Calm - N/A   Clear
5:53 PM 21.9 °F 17.2 °F 10.9 °F 63% 30.50 in 10.0 mi East 3.5 mph - N/A   Clear
6:53 PM 24.1 °F 19.7 °F 12.9 °F 62% 30.46 in 10.0 mi NNE 3.5 mph - N/A   Clear
7:53 PM 21.9 °F 14.5 °F 12.0 °F 66% 30.45 in 10.0 mi NNE 5.8 mph - N/A   Clear
8:53 PM 19.0 °F - 10.9 °F 71% 30.42 in 10.0 mi Calm Calm - N/A   Clear
9:53 PM 19.0 °F 8.2 °F 10.0 °F 68% 30.39 in 10.0 mi North 9.2 mph - N/A   Clear
10:53 PM 8.1 °F -2.0 °F 3.9 °F 83% 30.37 in 10.0 mi ENE 5.8 mph - N/A   Clear
11:53 PM 12.9 °F 3.8 °F 6.1 °F 74% 30.29 in 10.0 mi North 5.8 mph - N/A   Clear